Bellingham, WA

5:41 PM PDT on August 28, 2016 (GMT -0700)
Bellingham International

Weather History for KBLI - July, 2014

Change the Weather History Date:

Monday, July 28, 2014

  Actual Average Record
Temperature  
Mean Temperature 68 °F 63 °F  
Max Temperature 83 °F 73 °F 90 °F (2009)
Min Temperature 53 °F 54 °F 41 °F (1954)
Degree Days  
Heating Degree Days 0 2  
Month to date heating degree days 35 79  
Since 1 June heating degree days 171 280  
Cooling Degree Days 3 0  
Month to date cooling degree days 44 0  
Year to date cooling degree days 46 4  
Since 1 June cooling degree days 45 4  
Growing Degree Days 18 (Base 50)    
Moisture  
Dew Point 55 °F    
Average Humidity 65    
Maximum Humidity 93    
Minimum Humidity 37    
Precipitation  
Precipitation 0.00 in 0.03 in 0.43 in (1993)
Month to date precipitation 1.13 1.09  
Year to date precipitation 19.09 19.03  
Sea Level Pressure  
Sea Level Pressure 30.11 in    
Wind  
Wind Speed 3 mph (SW)    
Max Wind Speed 10 mph    
Max Gust Speed 15 mph    
Visibility 8 miles    
Events Rain    
T = Trace of Precipitation, MM = Missing Value Source: NWS Daily Summary

Daily Weather History Graph

Daily Weather History Graph

Search for Another Location

Airport or City:

Trip Planner

Search our weather history database for the weather conditions in past years. The results will help you decide how hot, cold, wet, or windy it might be!

Date:

Astronomy

Jul. 28, 2014 Rise Set
Actual Time 5:38 AM PDT 8:53 PM PDT
Civil Twilight 5:00 AM PDT 9:31 PM PDT
Nautical Twilight 4:10 AM PDT 10:21 PM PDT
Astronomical Twilight 3:06 AM PDT 11:24 PM PDT
Moon 7:39 AM PDT (7/28) 9:21 PM PDT (7/28)
Length of Visible Light 16h 31m
Length of Day
15h 15m
Waxing Crescent, 3% of the Moon is Illuminated
Jul 28
Waxing Crescent
Aug 3
First Quarter
Aug 10
Full
Aug 17
Last Quarter
Aug 25
New

Hourly Weather History & Observations

Time (PDT) Temp. Heat Index Dew Point Humidity Pressure Visibility Wind Dir Wind Speed Gust Speed Precip Events Conditions
12:53 AM 61.0 °F - 57.0 °F 87% 30.12 in 10.0 mi South 3.5 mph - N/A   Clear
1:53 AM 60.1 °F - 55.9 °F 86% 30.12 in 10.0 mi SSE 3.5 mph - N/A   Clear
2:53 AM 57.0 °F - 54.0 °F 89% 30.11 in 8.0 mi Calm Calm - N/A   Clear
3:53 AM 55.9 °F - 53.1 °F 90% 30.12 in 10.0 mi Calm Calm - N/A   Clear
4:31 AM 55.4 °F - 51.8 °F 88% 30.10 in 1.8 mi Calm Calm - N/A   Clear
4:41 AM 53.6 °F - 51.8 °F 94% 30.11 in 3.0 mi Calm Calm - N/A   Clear
4:53 AM 55.0 °F - 52.0 °F 89% 30.12 in 10.0 mi Calm Calm - N/A   Clear
5:24 AM 53.6 °F - 51.8 °F 94% 30.11 in 2.0 mi Calm Calm - N/A   Clear
5:36 AM 53.6 °F - 51.8 °F 94% 30.11 in 0.8 mi Calm Calm - N/A   Clear
5:49 AM 53.6 °F - 51.8 °F 94% 30.11 in 2.0 mi Calm Calm - N/A   Clear
5:53 AM 54.0 °F - 51.1 °F 90% 30.13 in 6.0 mi Calm Calm - N/A   Clear
6:53 AM 57.2 °F - 53.6 °F 88% 30.12 in 10.0 mi Calm Calm - N/A   Clear
7:53 AM 64.0 °F - 57.0 °F 78% 30.14 in 10.0 mi Calm Calm - N/A   Clear
8:53 AM 68.0 °F - 57.9 °F 70% 30.14 in 10.0 mi NW 4.6 mph - N/A   Clear
9:53 AM 70.0 °F - 57.0 °F 63% 30.14 in 10.0 mi Calm Calm - N/A   Clear
10:53 AM 73.4 °F - 57.2 °F 57% 30.11 in 10.0 mi Calm Calm - N/A   Clear
11:53 AM 75.2 °F - 60.8 °F 61% 30.11 in 10.0 mi SSW 4.6 mph - N/A   Clear
12:53 PM 77.0 °F - 57.9 °F 52% 30.12 in 10.0 mi West 8.1 mph - N/A   Clear
1:53 PM 78.1 °F - 57.0 °F 48% 30.12 in 10.0 mi West 6.9 mph - N/A   Clear
2:53 PM 80.6 °F 80.8 °F 57.2 °F 45% 30.10 in 10.0 mi WNW 5.8 mph - N/A   Clear
3:53 PM 82.0 °F 81.2 °F 53.1 °F 37% 30.10 in 10.0 mi WNW 4.6 mph - N/A   Clear
4:53 PM 82.0 °F 81.2 °F 53.1 °F 37% 30.09 in 10.0 mi SSW 4.6 mph - N/A   Clear
5:53 PM 81.0 °F 80.5 °F 54.0 °F 39% 30.08 in 10.0 mi SSW 4.6 mph - N/A   Clear
6:53 PM 79.0 °F - 54.0 °F 42% 30.07 in 10.0 mi Calm Calm - N/A   Clear
7:53 PM 73.0 °F - 57.9 °F 59% 30.07 in 10.0 mi South 4.6 mph - N/A   Clear
8:53 PM 69.1 °F - 57.0 °F 65% 30.07 in 10.0 mi Calm Calm - 0.00 in Rain Light Rain
9:53 PM 66.0 °F - 57.9 °F 75% 30.08 in 10.0 mi South 6.9 mph - 0.00 in   Clear
10:53 PM 64.9 °F - 55.9 °F 73% 30.09 in 10.0 mi South 8.1 mph - N/A   Clear
11:53 PM 64.0 °F - 53.1 °F 67% 30.09 in 10.0 mi South 4.6 mph - N/A   Clear